Temp
15 15 15 14 13 13 12 12 12 12 12 12 11 12 12 12 12 13 13 13 13 12 12 12 11 11 11 11 11 12 13 13 13 13 13 12 12 11 11 11 12 12
14 14 14 14 13 13 12 12 12 12 12 12 11 12 13 13 13 13 13 13 13 13 12 12 12 12 12 12 12 12 13 13 13 13 13 12 12 12 11 11 11 11
13 13 13 13 13 13 13 12 12 12 12 12 12 13 13 13 13 13 13 13 13 13 13 13 12 12 12 12 12 13 13 13 13 13 13 13 12 12 12 11 11 12
13 13 13 13 13 13 13 13 12 12 12 12 12 13 14 13 13 13 13 13 13 13 13 13 13 12 12 13 13 13 13 13 13 13 13 13 13 13 12 12 12 12
13 13 13 13 13 13 13 13 12 12 12 12 13 13 13 13 14 14 14 14 13 13 14 13 13 13 13 13 13 13 13 13 13 13 13 13 13 13 13 12 12 12
13 14 14 14 13 14 14 13 13 12 12 12 13 13 13 13 14 14 14 14 14 14 14 14 14 14 14 13 13 13 13 13 12 12 12 12 12 12 12 12 13 12
13 13 14 13 14 14 14 14 13 13 12 12 13 13 13 13 13 14 14 14 14 14 14 14 14 14 14 14 14 13 13 13 12 12 12 12 12 12 12 12 12 13
13 13 13 13 13 13 14 14 13 13 12 12 13 13 13 13 13 13 14 14 14 14 14 14 14 14 14 14 14 13 13 13 12 12 13 13 12 12 12 12 12 13
13 13 13 13 13 13 14 13 14 14 13 13 13 13 13 13 12 13 13 13 14 14 14 14 14 14 14 14 14 13 13 13 13 13 13 13 13 12 12 12 12 13
13 13 13 13 13 13 13 13 13 14 14 13 13 13 13 12 12 12 12 12 13 13 13 13 13 13 14 13 13 13 13 13 13 13 13 13 12 12 11 12 12 12
13 13 13 13 12 12 13 13 13 14 13 13 13 13 13 12 11 12 12 12 12 12 12 12 12 13 13 13 13 13 13 13 13 13 13 12 12 12 11 11 11 11
12 13 13 13 12 12 12 12 12 13 13 13 12 12 12 11 11 12 12 11 12 12 12 12 12 12 12 12 12 12 12 12 12 12 12 12 12 12 12 11 11 11
12 12 12 12 12 11 11 11 12 12 12 12 12 11 12 11 11 12 12 12 12 12 12 12 11 11 11 11 11 11 11 11 11 11 12 12 11 11 11 11 11 10
11 11 11 11 11 11 11 11 11 11 11 12 11 11 11 11 11 12 11 12 12 12 12 12 11 11 11 11 11 11 11 11 11 11 11 11 11 10 10 10 10 10
11 11 11 11 11 11 11 11 11 11 11 11 11 11 11 11 11 11 11 11 12 12 12 12 11 11 11 10 10 10 11 11 11 10 10 10 10 10 10 10 10 10
11 12 12 12 11 11 11 11 11 11 11 11 11 11 11 11 11 11 11 11 11 11 11 11 11 11 11 11 11 10 10 11 11 10 10 10 10 10 10 10 10 10
11 11 11 11 11 11 11 11 11 11 11 12 12 11 11 11 11 11 11 11 11 11 11 11 11 11 11 11 11 11 10 10 10 10 10 10 10 10 10 10 10 10
10 10 11 10 11 11 11 11 11 11 11 11 11 11 11 11 11 11 11 11 11 11 11 11 11 11 11 11 11 11 10 10 10 10 10 10 10 10 10 9 9 9
10 10 10 11 10 11 11 11 11 11 11 11 11 11 11 11 11 11 11 11 11 11 10 10 10 11 11 11 11 11 10 10 10 10 10 10 10 9 9 9 9 9
10 10 10 10 10 10 10 10 10 10 11 11 11 11 11 11 11 11 11 10 10 10 10 10 10 10 11 11 11 11 10 10 10 10 10 10 9 9 9 9 9 9
11 10 10 10 10 10 10 10 10 10 10 10 10 10 10 10 10 10 10 10 10 10 10 10 10 10 11 11 10 10 10 10 10 10 10 9 9 9 9 9 9 9
11 11 11 11 10 10 10 10 10 10 10 10 10 10 10 10 10 10 10 10 10 10 10 10 10 10 10 10 10 10 9 9 9 10 9 9 9 9 9 9 9 9
11 11 11 11 11 11 11 10 10 10 10 10 10 10 10 10 10 10 10 10 10 10 10 10 10 10 10 10 9 9 9 9 9 9 9 9 9 9 9 9 9 9
10 10 10 10 10 11 11 11 10 10 10 10 10 10 10 10 10 10 10 10 10 10 10 10 10 10 10 9 9 9 9 9 9 9 9 9 9 9 9 9 9 9
9 9 9 9 10 10 10 10 10 10 10 10 10 9 9 9 10 10 10 10 10 9 9 9 10 10 10 9 9 9 9 9 9 9 9 10 9 9 9 8 8 9
8 8 8 9 9 9 9 9 9 10 10 10 10 10 10 9 9 9 9 9 9 9 9 9 9 9 9 9 9 9 9 9 9 9 9 9 9 9 9 9 9 9
Height
1521 1522 1523 1524 1526 1528 1529 1531 1532 1534 1535 1535 1535 1535 1535 1535 1535 1535 1535 1535 1536 1536 1537 1537 1538 1539 1539 1539 1539 1539 1539 1539 1540 1541 1541 1542 1543 1544 1545 1546 1546 1547
1519 1521 1522 1523 1525 1527 1529 1531 1532 1534 1535 1535 1535 1535 1535 1535 1535 1535 1535 1535 1536 1537 1537 1538 1538 1539 1539 1539 1540 1540 1540 1540 1541 1541 1542 1543 1544 1544 1545 1546 1547 1547
1519 1521 1522 1523 1524 1527 1529 1530 1532 1533 1534 1535 1535 1535 1535 1535 1535 1535 1535 1536 1536 1537 1538 1538 1539 1539 1539 1540 1540 1540 1541 1541 1542 1542 1543 1544 1545 1545 1546 1547 1547 1548
1519 1520 1521 1522 1524 1526 1528 1529 1531 1533 1533 1534 1534 1535 1535 1536 1536 1536 1536 1536 1537 1537 1538 1538 1539 1539 1540 1540 1541 1541 1542 1543 1543 1544 1545 1545 1546 1547 1547 1548 1549 1549
1519 1520 1520 1522 1523 1525 1527 1528 1530 1532 1533 1534 1534 1535 1535 1536 1536 1536 1536 1536 1537 1538 1538 1539 1539 1540 1540 1541 1541 1542 1543 1544 1545 1546 1546 1547 1547 1548 1549 1549 1550 1550
1518 1519 1519 1521 1523 1524 1526 1528 1529 1531 1532 1533 1534 1535 1535 1536 1536 1537 1537 1537 1537 1538 1539 1539 1540 1540 1541 1541 1542 1543 1544 1545 1546 1547 1547 1548 1549 1549 1550 1551 1551 1551
1517 1518 1519 1521 1523 1524 1526 1527 1529 1530 1532 1533 1534 1534 1535 1536 1537 1537 1537 1538 1538 1539 1539 1540 1540 1541 1542 1542 1543 1544 1545 1546 1547 1548 1549 1549 1550 1550 1551 1551 1552 1552
1517 1518 1519 1521 1522 1524 1525 1526 1528 1529 1531 1532 1533 1534 1535 1536 1536 1537 1538 1538 1538 1539 1539 1540 1541 1542 1543 1543 1544 1545 1546 1547 1548 1549 1549 1550 1551 1551 1552 1552 1552 1553
1516 1517 1518 1520 1521 1523 1524 1525 1527 1528 1529 1531 1532 1533 1534 1535 1536 1537 1538 1538 1539 1539 1540 1540 1541 1542 1543 1544 1545 1546 1547 1548 1548 1549 1550 1551 1551 1552 1552 1553 1553 1553
1515 1517 1518 1519 1520 1521 1523 1524 1525 1527 1529 1530 1531 1533 1534 1535 1536 1537 1538 1538 1539 1539 1540 1541 1541 1542 1543 1544 1545 1546 1547 1548 1549 1550 1551 1551 1552 1553 1553 1553 1553 1554
1514 1515 1516 1516 1517 1519 1521 1522 1524 1526 1528 1529 1531 1532 1534 1535 1536 1537 1538 1539 1539 1540 1540 1541 1542 1542 1543 1544 1545 1546 1547 1548 1549 1549 1550 1551 1552 1553 1553 1554 1554 1554
1512 1512 1512 1513 1515 1517 1519 1521 1523 1525 1527 1528 1530 1532 1533 1535 1535 1536 1538 1539 1540 1540 1541 1542 1542 1543 1544 1545 1546 1546 1547 1548 1548 1549 1550 1551 1551 1552 1553 1554 1554 1555
1510 1511 1512 1514 1515 1517 1519 1521 1523 1525 1527 1529 1530 1532 1533 1535 1535 1536 1538 1539 1540 1541 1542 1543 1544 1545 1546 1546 1547 1547 1547 1548 1548 1548 1549 1550 1551 1552 1553 1554 1554 1555
1511 1514 1515 1517 1518 1518 1520 1521 1523 1527 1529 1530 1532 1533 1534 1535 1536 1537 1538 1539 1541 1542 1543 1544 1544 1544 1544 1546 1547 1548 1548 1548 1548 1549 1549 1550 1551 1551 1552 1553 1554 1554
1511 1514 1516 1517 1518 1518 1519 1521 1525 1527 1528 1530 1532 1533 1534 1535 1536 1537 1538 1539 1540 1541 1541 1542 1542 1543 1544 1547 1548 1548 1548 1548 1548 1548 1549 1549 1550 1550 1551 1552 1553 1553
1509 1512 1514 1515 1516 1517 1519 1521 1523 1525 1525 1526 1528 1531 1533 1534 1535 1536 1537 1538 1538 1538 1538 1539 1541 1544 1545 1547 1547 1546 1547 1547 1546 1547 1548 1549 1549 1549 1549 1550 1551 1552
1509 1510 1512 1514 1515 1516 1518 1520 1521 1522 1523 1524 1525 1528 1531 1532 1533 1534 1535 1536 1536 1536 1536 1538 1541 1544 1544 1545 1545 1544 1544 1545 1544 1545 1547 1548 1547 1547 1547 1548 1549 1549
1509 1511 1512 1514 1515 1517 1518 1519 1520 1522 1523 1523 1524 1526 1529 1531 1532 1532 1532 1533 1534 1534 1536 1537 1539 1541 1542 1543 1543 1542 1542 1542 1542 1542 1544 1545 1545 1544 1544 1545 1546 1546
1510 1511 1512 1514 1515 1517 1518 1519 1520 1521 1522 1523 1524 1525 1527 1529 1530 1530 1531 1531 1531 1532 1534 1535 1537 1538 1539 1540 1540 1540 1540 1540 1540 1540 1541 1542 1542 1542 1542 1543 1544 1545
1511 1512 1513 1514 1515 1516 1517 1518 1519 1521 1522 1523 1523 1524 1526 1527 1528 1529 1530 1530 1530 1531 1532 1533 1535 1536 1536 1537 1537 1537 1537 1537 1537 1538 1539 1540 1541 1541 1541 1542 1543 1544
1513 1513 1514 1515 1516 1517 1517 1518 1519 1521 1522 1523 1523 1524 1525 1525 1526 1528 1528 1529 1529 1529 1530 1531 1532 1533 1533 1533 1533 1534 1534 1535 1535 1536 1538 1539 1540 1541 1541 1542 1543 1544
1515 1516 1516 1517 1517 1518 1518 1519 1520 1521 1522 1522 1523 1523 1524 1524 1525 1526 1526 1527 1527 1527 1527 1528 1529 1529 1529 1529 1530 1531 1532 1533 1534 1536 1537 1538 1540 1540 1541 1542 1543 1543
1517 1517 1518 1518 1519 1519 1519 1519 1519 1520 1521 1521 1522 1522 1522 1522 1523 1523 1523 1524 1525 1525 1525 1525 1526 1526 1527 1527 1529 1530 1531 1532 1534 1535 1536 1538 1539 1540 1540 1541 1542 1542
1518 1518 1518 1518 1519 1519 1520 1519 1519 1520 1520 1520 1520 1520 1520 1520 1521 1521 1521 1521 1521 1522 1522 1523 1524 1524 1525 1527 1528 1530 1531 1532 1533 1535 1536 1537 1538 1538 1539 1540 1541 1541
1519 1518 1517 1517 1518 1518 1518 1519 1519 1520 1520 1519 1519 1519 1519 1519 1519 1519 1519 1519 1520 1520 1521 1522 1523 1524 1525 1527 1528 1529 1530 1531 1533 1534 1535 1536 1536 1536 1538 1538 1539 1540
1518 1517 1517 1517 1517 1517 1517 1518 1518 1519 1519 1520 1519 1519 1519 1519 1518 1518 1519 1519 1520 1520 1521 1521 1523 1524 1525 1526 1527 1527 1528 1530 1531 1532 1534 1535 1534 1534 1535 1536 1537 1538
Wind_Speed
17 16 14 12 11 10 9 9 9 9 7 7 8 7 7 7 6 6 7 7 7 9 10 11 11 12 13 12 10 11 13 13 13 13 12 12 14 17 18 16 14 15
18 16 14 13 11 10 10 10 10 10 9 9 9 8 7 6 5 5 5 5 6 7 8 9 9 9 10 10 10 11 12 12 13 13 13 14 15 16 18 16 14 13
19 17 15 14 12 11 12 12 11 10 10 11 10 8 7 6 5 6 5 5 6 6 7 8 8 8 9 9 10 10 10 11 12 12 12 13 14 15 16 15 13 13
20 18 16 14 12 12 13 13 13 12 12 12 10 7 7 6 6 6 6 6 7 7 8 8 9 9 10 11 11 12 13 13 13 13 13 14 13 15 16 16 15 14
19 18 17 15 14 13 13 14 14 14 14 13 10 8 9 8 7 7 7 7 8 8 8 8 9 10 11 12 12 12 13 14 14 14 14 15 14 14 15 15 16 16
19 17 16 16 14 13 13 14 15 15 15 14 11 10 10 9 8 7 7 8 8 8 8 8 9 10 10 11 11 11 12 13 13 11 12 14 13 12 12 12 13 14
19 17 16 15 13 12 12 13 14 16 16 15 13 13 12 11 10 8 8 8 8 8 8 8 9 9 9 9 9 10 10 11 10 8 9 10 10 10 10 10 9 9
20 18 17 16 14 13 14 14 16 17 18 17 16 15 14 12 11 10 9 9 9 9 8 8 8 8 8 7 7 7 7 8 7 5 5 6 6 6 6 6 5 4
22 21 19 17 16 15 15 16 17 18 18 18 16 15 15 13 11 12 11 10 10 9 9 9 9 8 8 7 6 6 5 5 4 3 3 3 3 4 2 2 2 1
23 22 20 18 17 17 17 18 18 17 16 16 16 15 15 13 11 11 11 10 10 10 9 10 9 9 8 7 7 6 5 5 4 3 2 3 2 3 2 3 2 3
23 24 22 21 20 19 19 19 18 17 17 16 15 14 13 12 11 11 11 10 10 9 9 9 9 9 9 8 8 7 6 6 6 5 5 5 4 5 5 4 3 3
24 26 26 23 21 20 21 21 18 17 18 16 14 12 12 11 11 11 11 11 10 10 9 8 8 8 7 8 8 7 7 7 7 7 6 5 6 6 5 5 6 4
23 26 25 22 21 21 21 20 18 16 16 15 14 12 12 13 13 12 12 11 10 9 9 8 7 8 8 9 8 7 7 8 8 9 7 6 7 6 5 6 8 6
19 21 21 20 20 22 21 18 16 14 13 12 12 12 12 14 13 12 12 13 11 10 10 10 11 13 13 11 10 10 10 10 10 10 9 9 9 8 7 9 8 8
15 15 15 16 17 20 20 17 15 16 15 13 13 13 13 14 13 12 12 13 12 12 14 14 16 17 14 10 9 11 11 11 11 12 11 10 10 11 12 12 11 12
11 12 13 14 15 17 17 15 16 18 19 17 16 16 16 16 15 15 14 14 15 16 18 18 17 16 15 12 12 12 13 13 14 15 14 12 13 15 16 15 15 15
8 10 13 14 15 14 13 13 15 18 20 20 19 18 18 18 18 18 17 18 19 19 19 18 17 16 15 15 15 14 14 15 17 17 17 17 17 17 18 18 17 17
5 7 11 12 12 11 10 10 11 14 17 19 19 19 19 19 20 21 21 21 22 21 20 19 17 17 17 18 19 18 16 16 18 20 19 19 18 17 17 17 15 14
5 6 7 7 7 6 7 7 8 10 12 14 16 19 22 23 23 23 23 23 23 22 20 17 15 16 17 18 19 19 17 16 19 21 19 17 16 14 11 12 10 9
4 5 5 5 5 4 4 5 5 6 8 9 11 17 21 23 24 24 24 24 24 22 19 17 16 17 17 17 17 17 17 16 17 17 13 8 7 5 4 6 7 6
7 6 5 4 3 3 3 4 4 5 8 9 10 12 15 17 19 21 22 21 21 21 21 20 20 19 19 19 19 17 15 13 12 10 7 6 6 5 6 8 8 7
9 8 7 6 5 4 3 0 2 4 6 9 10 11 12 14 14 16 17 18 19 21 21 21 19 18 19 19 17 15 13 11 10 9 9 7 6 7 8 8 9 8
8 7 6 5 5 4 3 2 2 2 3 5 6 8 9 11 11 12 13 15 17 18 19 18 17 16 16 16 14 13 12 12 11 10 8 7 9 10 11 11 12 13
7 7 6 5 5 5 2 1 2 3 5 5 5 5 7 8 8 9 10 11 12 13 15 15 15 14 14 14 15 14 14 13 12 10 9 11 13 14 14 14 13 14
7 5 2 2 3 4 3 2 1 2 4 7 7 5 5 6 7 7 7 8 9 10 12 13 12 11 13 15 15 15 15 15 14 12 11 14 14 14 15 15 14 14
6 5 5 3 2 2 2 2 2 2 2 5 8 7 6 8 8 7 7 8 8 10 13 14 13 11 12 14 15 15 15 16 17 13 11 15 15 13 15 15 14 14
Wind_Direction
174 175 170 161 158 159 162 167 165 160 168 191 198 185 165 160 155 144 134 128 119 111 111 115 120 127 128 123 115 110 108 108 109 107 102 104 113 117 112 108 111 117
168 172 167 156 160 171 171 170 166 163 180 199 200 192 185 180 166 147 138 136 131 121 115 113 113 116 120 119 113 110 110 110 110 108 105 104 110 115 111 105 105 112
164 166 159 153 168 183 176 170 168 171 185 197 204 202 193 189 176 156 147 137 125 122 119 112 108 106 107 109 109 109 108 107 108 108 109 108 110 113 109 105 106 109
165 164 158 158 178 189 179 173 173 176 189 200 205 198 184 187 179 158 145 131 122 121 119 113 109 107 103 102 103 105 104 104 104 103 104 104 105 108 105 101 100 98
168 168 167 172 185 190 184 182 180 179 191 203 203 189 181 179 170 157 144 132 126 121 116 114 114 110 107 104 100 101 103 101 101 100 100 100 98 100 101 103 102 96
173 174 178 184 191 192 188 190 192 189 191 198 194 186 183 175 168 163 149 140 136 131 126 122 120 118 115 114 109 106 107 103 99 101 104 102 101 101 99 102 105 102
179 177 181 188 191 192 190 192 198 195 192 193 191 186 183 178 174 169 161 157 150 145 142 136 133 131 128 127 123 120 120 111 102 102 110 108 110 115 110 107 109 109
186 183 186 190 187 188 191 193 198 197 192 191 189 185 182 179 178 176 174 172 166 164 162 156 154 151 148 148 137 133 136 129 124 124 126 124 120 120 122 124 120 112
193 190 191 194 189 189 193 198 202 200 195 191 186 185 183 179 182 184 178 178 179 179 177 174 175 176 175 172 162 161 165 159 161 156 145 151 122 106 129 166 157 145
193 191 193 196 192 189 193 203 207 202 197 191 185 186 183 178 188 190 179 180 187 187 189 190 190 192 192 189 190 193 194 202 217 220 218 220 166 148 221 265 255 258
193 194 197 199 197 192 192 202 209 202 195 191 188 189 183 179 194 193 180 186 190 187 195 198 198 203 203 202 210 214 217 233 244 243 241 236 213 207 226 249 252 258
195 200 202 201 199 191 190 200 208 202 195 192 192 193 183 184 200 195 187 197 196 188 196 203 208 216 211 210 224 226 223 238 244 243 244 229 228 242 240 246 252 235
198 204 204 203 199 188 186 200 206 201 196 192 192 194 188 193 204 197 192 201 199 194 204 212 221 230 218 213 224 229 229 237 234 234 246 240 238 252 253 257 265 247
200 201 198 199 198 188 184 190 191 188 192 192 192 195 197 204 207 199 201 206 202 204 214 218 221 225 222 214 213 221 236 248 246 246 257 252 241 242 238 240 246 238
194 195 196 198 200 196 192 189 181 179 184 190 198 203 207 213 209 205 215 217 213 218 225 225 224 227 232 229 218 226 243 255 255 251 248 243 243 249 251 252 253 248
181 184 195 200 203 204 202 198 191 188 188 189 196 202 210 216 212 210 220 223 222 225 227 229 231 236 241 236 226 234 250 260 261 256 256 264 273 271 265 263 262 255
167 173 187 195 200 200 200 202 201 200 202 203 201 203 211 219 218 217 220 225 229 230 232 234 236 238 239 234 231 236 246 258 265 265 271 279 284 283 275 269 265 255
148 160 179 188 194 196 202 212 214 212 217 219 214 212 216 220 221 220 221 227 233 234 237 242 243 244 245 244 246 246 246 255 262 264 271 276 277 281 278 269 264 255
123 134 156 170 181 194 199 206 216 221 225 228 224 220 222 224 227 227 227 233 240 240 241 245 249 254 256 253 252 252 252 256 260 263 269 271 270 272 266 255 249 238
95 115 126 141 160 180 184 182 200 215 216 222 224 223 226 230 233 236 236 239 244 246 246 249 254 258 260 261 262 263 262 261 261 261 258 248 244 241 210 204 200 184
48 57 63 72 110 141 160 173 183 198 208 217 223 225 229 233 235 238 240 242 247 252 254 257 260 261 263 267 272 270 264 257 250 238 211 184 182 170 152 158 162 152
49 50 51 47 50 52 37 32 192 204 220 227 231 232 233 235 238 242 246 247 251 257 260 259 259 262 266 269 269 260 248 238 225 202 184 176 172 164 163 170 167 157
49 50 54 60 55 42 19 345 338 318 270 251 242 236 234 239 245 249 251 251 251 257 263 262 259 260 261 258 248 234 225 222 212 191 180 184 183 179 184 189 179 170
30 33 45 64 48 24 17 36 10 344 320 303 283 258 250 257 261 256 255 256 254 252 255 257 255 250 241 234 225 219 222 220 202 179 183 201 204 200 200 200 194 186
14 11 21 106 63 23 29 65 33 337 318 303 292 290 282 274 273 264 252 247 239 230 229 234 236 226 219 222 222 222 226 215 189 179 198 207 209 215 212 208 207 204
345 331 304 270 273 307 302 273 249 250 301 289 280 283 280 267 261 247 232 231 226 214 211 217 222 216 215 223 225 222 219 203 187 187 204 201 202 220 223 215 214 214